Regional Weather Roundup
Issued by NWS Midland/Odessa, TX

Current Version | Previous Version | Text Only | Print | Product List | Glossary On
Versions: 1 2 3 4 5 6 7 8 9 10 11 12 13 14 15 16 17 18 19 20 21 22 23 24 25 26 27 28 29 30 31 32 33 34 35 36 37 38 39 40 41 42 43 44 45 46 47 48 49 50
000
ASUS44 KMAF 280210
RWRMAF
MIDLAND AREA WEATHER ROUNDUP
NATIONAL WEATHER SERVICE MIDLAND TX
900 PM CDT SAT MAY 27 2017

...IN SOUTHWEST TEXAS AND SOUTHEAST NEW MEXICO...

CITY           SKY/WX    TMP DP  RH WIND       PRES   REMARKS
ALPINE         CLEAR     84  29  13 NW5       30.05R
ANDREWS        FAIR      87  33  14 CALM      29.89R
ARTESIA        CLEAR     88  10   5 W16       29.90R
BIG SPRING     CLEAR     88  34  15 SW5       29.85R
CARLSBAD       CLEAR     88  11   5 W13       29.88R
DRYDEN           N/A     89  65  44 SE14      29.83R
FORT STOCKTON  CLEAR     90  31  12 NE6       29.88R
GUAD PASS      CLEAR     79  26  14 W30G36    30.05R
HOBBS          CLEAR     84   7   5 SW12      29.91R
MARFA          CLEAR     80  32  17 NW8       30.04S
MIDLAND AIRPK  CLEAR     93  26   9 W8        29.86R
MIDLAND INTL   CLEAR     90  27  10 W8        29.85R
ODESSA         CLEAR     90  23   9 W9        29.87R
PECOS          CLEAR     91  30  11 W8        29.84R
PRESIDIO       FAIR      96  30   9 NW6       29.84R
SEMINOLE       CLEAR     85  23  10 SW9       29.89R
SNYDER         CLEAR     90  29  11 W3        29.82R
WINK           CLEAR     94  22   7 W18       29.83R
$$
...OTHER STATIONS IN TEXAS...

CITY           SKY/WX    TMP DP  RH WIND       PRES   REMARKS
ABILENE        CLEAR    N/A N/A N/A MISG      29.79R
AMARILLO       CLEAR     69  52  54 NE8       29.91R
AUSTIN         CLOUDY    85  74  69 S17       29.82R
BROWNSVILLE    MOCLDY    83  78  85 SE9       29.84R
CORPUS CHRISTI CLOUDY    81  78  91 SE14      29.83R
DALLAS FTW     PTCLDY    88  75  65 S20G28    29.73S
DEL RIO        MOCLDY    87  75  67 W8        29.77S HAZE
EL PASO        PTCLDY    89  22   8 W17       29.94R
HOUSTON INT    PTCLDY    82  73  74 S10       29.87R
LUBBOCK        PTCLDY    83  20   9 NW7       29.86R
SAN ANGELO     PTCLDY    91  66  43 S12       29.80R
SAN ANTONIO    CLOUDY    85  75  72 SE20      29.84R
WACO           CLEAR     86  74  67 S15       29.79R
WICHITA FALLS  NOT AVBL
$$
...OTHER LOCATIONS IN NEW MEXICO...

CITY           SKY/WX    TMP DP  RH WIND       PRES   REMARKS
ALAMOGORDO     CLEAR     84   5   5 W10G17    29.99R
ALBUQUERQUE    PTCLDY    79  14   8 NW9       30.04R
CANNON AFB     CLEAR     81  14   8 NW9       29.94R
CLOVIS         CLEAR     81  21  11 NW9       29.93R
HOLLOMAN AFB   CLEAR     84   2   4 SW15      30.00R
ROSWELL        CLEAR     86  10   6 W12       29.89R
RUIDOSO        CLEAR     70   3   7 SW22G28   30.15S
SANTA FE       CLEAR     71  18  13 NW12      30.09R
TRUTH OR CONSE LGT RAIN  83  -1   4 SW16G23   29.99R
TUCUMCARI      CLEAR     79  19  10 W10       29.88R
$$



USA.gov is the U.S. government's official web portal to all federal, state and local government web resources and services.